Torna al catalogo

THOR ABLESTAR DEB

AttivoLEO
NORAD 544·DEBRIS·🇺🇸 United States

Lanciato Jun 29, 1961 da Cape Canaveral Space Force Station

Loading…

Prossimi Passaggi (prossime 24 ore)

TLE

AggiornatoSource: Space-Track

Epoca: Sep 14, 2026, 14:02 UTC

1 00544U 61015GD  26257.58497069  .00000084  00000-0  19536-3 0  9995
2 00544  66.8762  14.5421 0189460 205.5608 166.6979 13.56254370213737

Traccia THOR ABLESTAR DEB in tempo reale con AllMySat

Download on the App Store